Regional Weather Roundup
Issued by NWS Cleveland, OH

Home | Current Version | Previous Version | Graphics & Text | Print | Product List | Glossary On
Versions: 1 2 3 4 5 6 7 8 9 10 11 12 13 14 15 16 17 18 19 20 21 22 23 24 25 26 27 28 29 30 31 32 33 34 35 36 37 38 39 40 41 42 43 44 45 46 47 48 49 50
000
ASUS41 KCLE 292212
RWRCLE
OHIO REGIONAL WEATHER ROUNDUP
NATIONAL WEATHER SERVICE WILMINGTON, OH
600 PM EDT SAT APR 29 2017

NOTE: "FAIR" INDICATES FEW OR NO CLOUDS BELOW 12,000 FEET WITH NO
SIGNIFICANT WEATHER AND/OR OBSTRUCTIONS TO VISIBILITY.

OHZ001>008-015>018-024>027-034-035-043-044-292300-
   NORTHWEST OHIO

CITY           SKY/WX    TMP DP  RH WIND       PRES   REMARKS
DEFIANCE       CLOUDY    46  42  86 NE13      30.15F
FINDLAY        CLOUDY    49  43  80 NE16      30.13S
TOLEDO EXPRESS CLOUDY    46  42  86 NE14      30.18R
TOLEDO EXEC    CLOUDY    47  41  80 NE14G20   30.20R
LIMA           CLOUDY    50  49  96 NE15G23   30.11S
$$

OHZ009>014-019>023-028>033-038-089-292300-
   NORTHEAST OHIO

CITY           SKY/WX    TMP DP  RH WIND       PRES   REMARKS
CLE-HOPKINS    CLOUDY    50  39  66 NE15      30.20S
CLE-LAKEFRONT  CLOUDY    49  39  68 N16       30.18R
CUY CO. ARPT   CLOUDY    50  41  71 NE12      30.19R
LORAIN-ELYRIA  CLOUDY    47  39  74 NE14      30.18S
ASHTABULA      CLOUDY    50  43  77 N5        30.19R
AKRON-CANTON   CLOUDY    57  53  86 NE8       30.13R
WOOSTER        CLOUDY    51  49  92 N14       30.15R
MANSFIELD      CLOUDY    49  48  97 NE10      30.14S FOG
YOUNGSTOWN     CLOUDY    50  48  93 N9        30.15F FOG
$$

OHZ042-051>053-060>062-070>072-077>081-292300-
  SOUTHWEST OHIO

CITY           SKY/WX    TMP DP  RH WIND       PRES   REMARKS
CINC-COVINGTON PTSUNNY   80  65  59 SE12      29.99F
CINC-LUNKEN    FAIR      80  67  64 S5        29.99F
HAMILTON       FAIR      80  65  59 VRB3      30.00F
DAYTON         PTSUNNY   70  62  76 N12       30.03F
WRIGHT-PAT AFB FAIR      76  65  67 E9        30.02F
DAYTON GENERAL FAIR      76  62  62 E8        30.01F
WILMINGTON     FAIR      76  65  68 SE7       30.02F
$$

OHZ036-037-039>041-045>050-054>059-063>069-073>076-082>088-292300-
  CENTRAL AND SOUTHEAST OHIO

CITY           SKY/WX    TMP DP  RH WIND       PRES   REMARKS
COLUMBUS       PTSUNNY   76  63  64 SE7       30.05S
OSU AIRPORT    FAIR      69  63  81 N12       30.05F
BOLTON FIELD   SUNNY     73  63  68 S5        30.06S
RICKENBACK AFB FAIR      74  63  67 SE3       30.04F
NEWARK         FAIR      76  61  59 S5        30.05F
MARION         CLOUDY    53  50  89 NE16      30.11F FOG
LANCASTER      FAIR      78  64  61 CALM      30.06S
ZANESVILLE     FAIR      76  61  59 VRB3      30.06F
NEW PHILLY     CLOUDY    63  60  90 N6        30.10S
$$




USA.gov is the U.S. government's official web portal to all federal, state and local government web resources and services.